Volver al catálogo

SL-3 R/B

ActivoPO
NORAD 5732·ROCKET BODY·🇷🇺 Russia

Lanzado Dec 29, 1971 desde Plesetsk Cosmodrome

Loading…

Próximos Pases (próximas 24 horas)

TLE

ActualizadoSource: Space-Track

Época: Sep 14, 2026, 12:55 UTC

1 05732U 71120B   26257.53824869  .00000159  00000-0  88296-4 0  9997
2 05732  81.2487 100.9014 0050584 268.1181  91.4194 14.06443945805262

Sigue SL-3 R/B en tiempo real con AllMySat

Download on the App Store